Beja current weather conditions

sailwx.info

Wind from 090 at 6 knots

Air temperature 20.0° C
Dewpoint 10.0° C

Last reported at 2014-Oct-24 09:00 UTC.
Time now 2014-Oct-24 11:19 UTC

Location: N 38°05' W 007°56'.
View on Google Maps.

See reports from other nearby stations

  
Tides and Currents Weather Stations Pressure Air Temp Water Temp Dewpoint Dewpoint Depression Visibility Wind Speed Wind Dir Waves Ship Positions
date/time (UTC)wind fromknots sea level pressurealtimeterstation pressurevisibilityair tempwater tempwave heightnotes
2014-Oct-24 10:00 080 10 23.0
2014-Oct-24 09:00 090 6 20.0
2014-Oct-24 08:00 090 6 16.0
2014-Oct-24 07:00 110 3 14.0
2014-Oct-24 06:00 110 5 15.0
2014-Oct-24 05:00 110 6 16.0
2014-Oct-24 04:00 120 6 17.0
2014-Oct-24 03:00 120 5 17.0
2014-Oct-24 02:00 110 6 17.0
2014-Oct-24 01:00 130 5 17.0
2014-Oct-24 00:00 090 4 18.0
2014-Oct-23 23:00 070 6 19.0
2014-Oct-23 22:00 060 4 18.0
2014-Oct-23 21:00 060 7 20.0
2014-Oct-23 20:00 060 5 19.0
2014-Oct-23 19:00 050 7 21.0
2014-Oct-23 18:00 040 9 24.0
2014-Oct-23 17:00 040 8 26.0
2014-Oct-23 16:00 060 10 27.0
2014-Oct-23 15:00 070 10 28.0
2014-Oct-23 14:00 070 10 28.0
2014-Oct-23 13:00 080 11 27.0
2014-Oct-23 12:00 070 11 26.0
2014-Oct-23 11:00 080 10 25.0
2014-Oct-23 10:00 080 10 22.0
2014-Oct-23 09:00 100 5 20.0
2014-Oct-23 08:00 110 5 16.0
2014-Oct-23 07:00 090 5 16.0
2014-Oct-23 06:00 070 7 15.0
2014-Oct-23 05:00 080 6 16.0
2014-Oct-23 04:00 090 7 17.0
2014-Oct-23 03:00 090 5 17.0
2014-Oct-23 02:00 080 5 18.0
2014-Oct-23 01:00 070 5 19.0
2014-Oct-23 00:00 060 6 20.0
2014-Oct-22 23:00 050 6 21.0
2014-Oct-22 22:00 040 7 22.0
2014-Oct-22 21:00 040 7 23.0
2014-Oct-22 20:00 030 6 23.0
2014-Oct-22 19:00 360 8 25.0
2014-Oct-22 18:00 350 6 26.0
2014-Oct-22 17:00 340 5 29.0
2014-Oct-22 16:00 030 7 31.0
2014-Oct-22 15:00 030 9 31.0
2014-Oct-22 14:00 030 8 32.0
2014-Oct-22 13:00 040 5 31.0
2014-Oct-22 12:00 30.0
2014-Oct-22 11:00 070 3 27.0